Meteo pe oră la Almunecar

Astăzi, 16 Ianuarie, Sâmbătă

Timp Temperatura Precipitaţii Vânt Presiune Umiditate
00:00 +10°C° 0 mm 3 m/s 766 mmHg 44%
01:00 +10°C° 0 mm 3 m/s 766 mmHg 42%
02:00 +10°C° 0 mm 4 m/s 766 mmHg 40%
03:00 +10°C° 0 mm 4 m/s 766 mmHg 37%
04:00 +10°C° 0 mm 4 m/s 766 mmHg 37%
05:00 +10°C° 0 mm 4 m/s 766 mmHg 36%
06:00 +10°C° 0 mm 4 m/s 766 mmHg 36%
07:00 +11°C° 0 mm 4 m/s 766 mmHg 38%
08:00 +12°C° 0 mm 3 m/s 767 mmHg 40%
09:00 +13°C° 0 mm 3 m/s 767 mmHg 43%
10:00 +14°C° 0 mm 3 m/s 767 mmHg 41%
11:00 +17°C° 0 mm 2 m/s 767 mmHg 40%
12:00 +18°C° 0 mm 2 m/s 767 mmHg 39%
13:00 +18°C° 0 mm 3 m/s 767 mmHg 43%
14:00 +17°C° 0 mm 3 m/s 767 mmHg 46%
15:00 +17°C° 0 mm 4 m/s 767 mmHg 50%
16:00 +15°C° 0 mm 4 m/s 767 mmHg 55%
17:00 +13°C° 0 mm 4 m/s 767 mmHg 60%
18:00 +11°C° 0 mm 3 m/s 767 mmHg 66%
19:00 +11°C° 0 mm 3 m/s 768 mmHg 65%
20:00 +11°C° 0 mm 3 m/s 768 mmHg 64%
21:00 +10°C° 0 mm 2 m/s 769 mmHg 64%
22:00 +10°C° 0 mm 2 m/s 769 mmHg 61%
23:00 +10°C° 0 mm 2 m/s 769 mmHg 59%

Mâine, 17 Ianuarie, Duminică

Timp Temperatura Precipitaţii Vânt Presiune Umiditate
00:00 +10°C° 0 mm 2 m/s 769 mmHg 57%
01:00 +10°C° 0 mm 2 m/s 769 mmHg 55%
02:00 +11°C° 0 mm 1 m/s 769 mmHg 53%
03:00 +11°C° 0 mm 1 m/s 768 mmHg 51%
04:00 +11°C° 0 mm 1 m/s 768 mmHg 50%
05:00 +10°C° 0 mm 1 m/s 768 mmHg 49%
06:00 +10°C° 0 mm 1 m/s 768 mmHg 48%
07:00 +12°C° 0 mm 1 m/s 768 mmHg 48%
08:00 +13°C° 0 mm 1 m/s 768 mmHg 47%
09:00 +15°C° 0 mm 1 m/s 768 mmHg 47%
10:00 +16°C° 0 mm 1 m/s 768 mmHg 45%
11:00 +18°C° 0 mm 1 m/s 768 mmHg 43%
12:00 +19°C° 0 mm 1 m/s 768 mmHg 42%
13:00 +19°C° 0 mm 1 m/s 767 mmHg 43%
14:00 +19°C° 0 mm 1 m/s 767 mmHg 45%
15:00 +19°C° 0 mm 1 m/s 766 mmHg 47%
16:00 +18°C° 0 mm 1 m/s 767 mmHg 50%
17:00 +15°C° 0 mm 1 m/s 767 mmHg 53%
18:00 +13°C° 0 mm 1 m/s 767 mmHg 56%
19:00 +13°C° 0 mm 1 m/s 767 mmHg 56%
20:00 +13°C° 0 mm 1 m/s 767 mmHg 55%
21:00 +13°C° 0 mm 1 m/s 767 mmHg 54%
22:00 +13°C° 0 mm 1 m/s 767 mmHg 54%
23:00 +13°C° 0 mm 1 m/s 767 mmHg 53%

Poimâine, 18 Ianuarie, Luni

Timp Temperatura Precipitaţii Vânt Presiune Umiditate
00:00 +13°C° 0 mm 2 m/s 767 mmHg 53%
01:00 +13°C° 0 mm 2 m/s 767 mmHg 52%
02:00 +12°C° 0 mm 2 m/s 767 mmHg 51%
03:00 +12°C° 0 mm 2 m/s 767 mmHg 50%
04:00 +12°C° 0 mm 2 m/s 766 mmHg 50%
05:00 +12°C° 0 mm 1 m/s 766 mmHg 51%
06:00 +11°C° 0 mm 1 m/s 766 mmHg 51%
07:00 +13°C° 0 mm 1 m/s 766 mmHg 51%
08:00 +14°C° 0 mm 1 m/s 767 mmHg 51%
09:00 +15°C° 0 mm 1 m/s 767 mmHg 50%
10:00 +16°C° 0 mm 1 m/s 767 mmHg 48%
11:00 +18°C° 0 mm 1 m/s 767 mmHg 46%
12:00 +19°C° 0 mm 1 m/s 767 mmHg 43%
13:00 +19°C° 0 mm 1 m/s 766 mmHg 45%
14:00 +19°C° 0 mm 1 m/s 766 mmHg 46%
15:00 +19°C° 0 mm 1 m/s 766 mmHg 48%
16:00 +16°C° 0 mm 1 m/s 766 mmHg 54%
17:00 +15°C° 0 mm 1 m/s 766 mmHg 60%
18:00 +12°C° 0 mm 0 m/s 766 mmHg 66%
19:00 +13°C° 0 mm 1 m/s 767 mmHg 65%
20:00 +13°C° 0 mm 1 m/s 767 mmHg 63%
21:00 +12°C° 0 mm 1 m/s 767 mmHg 61%
22:00 +12°C° 0 mm 1 m/s 767 mmHg 62%
23:00 +12°C° 0 mm 1 m/s 767 mmHg 64%

19 Ianuarie, Marţi

Timp Temperatura Precipitaţii Vânt Presiune Umiditate
00:00 +11°C° 0 mm 1 m/s 767 mmHg 65%
01:00 +11°C° 0 mm 1 m/s 767 mmHg 65%
02:00 +11°C° 0 mm 1 m/s 767 mmHg 65%
03:00 +11°C° 0 mm 1 m/s 767 mmHg 64%
04:00 +11°C° 0 mm 1 m/s 767 mmHg 64%
05:00 +10°C° 0 mm 1 m/s 766 mmHg 63%
06:00 +10°C° 0 mm 1 m/s 766 mmHg 63%
07:00 +11°C° 0 mm 1 m/s 766 mmHg 60%
08:00 +13°C° 0 mm 1 m/s 767 mmHg 57%
09:00 +14°C° 0 mm 1 m/s 767 mmHg 55%
10:00 +15°C° 0 mm 1 m/s 766 mmHg 53%
11:00 +16°C° 0 mm 1 m/s 766 mmHg 51%
12:00 +18°C° 0 mm 1 m/s 766 mmHg 50%
13:00 +18°C° 0 mm 1 m/s 765 mmHg 51%
14:00 +16°C° 0 mm 1 m/s 765 mmHg 52%
15:00 +16°C° 0 mm 1 m/s 764 mmHg 53%
16:00 +15°C° 0 mm 1 m/s 764 mmHg 58%
17:00 +14°C° 0 mm 1 m/s 764 mmHg 63%
18:00 +12°C° 0 mm 1 m/s 764 mmHg 68%
19:00 +12°C° 0 mm 1 m/s 764 mmHg 65%
20:00 +12°C° 0 mm 1 m/s 764 mmHg 63%
21:00 +12°C° 0 mm 1 m/s 764 mmHg 60%
22:00 +12°C° 0 mm 1 m/s 764 mmHg 60%
23:00 +12°C° 0 mm 2 m/s 764 mmHg 61%

20 Ianuarie, Miercuri

Timp Temperatura Precipitaţii Vânt Presiune Umiditate
00:00 +12°C° 0 mm 2 m/s 763 mmHg 61%
01:00 +12°C° 0 mm 2 m/s 763 mmHg 60%
02:00 +12°C° 0 mm 2 m/s 763 mmHg 59%
03:00 +12°C° 0 mm 2 m/s 762 mmHg 58%
04:00 +12°C° 0 mm 2 m/s 762 mmHg 58%
05:00 +12°C° 0 mm 2 m/s 761 mmHg 57%
06:00 +12°C° 0 mm 2 m/s 761 mmHg 57%
07:00 +13°C° 0 mm 2 m/s 761 mmHg 57%
08:00 +14°C° 0 mm 2 m/s 761 mmHg 57%
09:00 +14°C° 0 mm 2 m/s 760 mmHg 57%
10:00 +14°C° 0 mm 3 m/s 760 mmHg 55%
11:00 +15°C° 0 mm 4 m/s 760 mmHg 54%
12:00 +15°C° 0 mm 4 m/s 759 mmHg 52%
13:00 +14°C° 0.4 mm 5 m/s 759 mmHg 63%
14:00 +13°C° 0.4 mm 6 m/s 759 mmHg 74%
15:00 +13°C° 0.4 mm 6 m/s 758 mmHg 86%
16:00 +12°C° 1 mm 7 m/s 758 mmHg 89%
17:00 +12°C° 1 mm 7 m/s 758 mmHg 91%
18:00 +12°C° 1 mm 8 m/s 759 mmHg 94%
19:00 +12°C° 0.2 mm 7 m/s 759 mmHg 94%
20:00 +13°C° 0.2 mm 6 m/s 759 mmHg 94%
21:00 +12°C° 0.2 mm 4 m/s 760 mmHg 95%
22:00 +12°C° 0.1 mm 4 m/s 760 mmHg 92%
23:00 +12°C° 0.1 mm 3 m/s 760 mmHg 90%

21 Ianuarie, Joi

Timp Temperatura Precipitaţii Vânt Presiune Umiditate
00:00 +13°C° 0.1 mm 2 m/s 760 mmHg 88%
01:00 +12°C° 0 mm 3 m/s 760 mmHg 87%
02:00 +12°C° 0 mm 3 m/s 760 mmHg 87%
03:00 +12°C° 0 mm 4 m/s 760 mmHg 86%
04:00 +12°C° 0 mm 4 m/s 760 mmHg 86%
05:00 +12°C° 0 mm 4 m/s 760 mmHg 86%
06:00 +12°C° 0 mm 4 m/s 760 mmHg 85%
07:00 +13°C° 0 mm 4 m/s 761 mmHg 85%
08:00 +13°C° 0 mm 5 m/s 761 mmHg 85%
09:00 +14°C° 0 mm 5 m/s 761 mmHg 85%
10:00 +15°C° 0 mm 5 m/s 761 mmHg 82%
11:00 +15°C° 0 mm 6 m/s 761 mmHg 79%
12:00 +16°C° 0 mm 6 m/s 761 mmHg 76%
13:00 +16°C° 0 mm 7 m/s 761 mmHg 76%
14:00 +16°C° 0 mm 7 m/s 760 mmHg 76%
15:00 +16°C° 0 mm 8 m/s 760 mmHg 75%
16:00 +16°C° 0 mm 8 m/s 760 mmHg 79%
17:00 +15°C° 0 mm 7 m/s 760 mmHg 82%
18:00 +14°C° 0 mm 7 m/s 760 mmHg 86%
19:00 +14°C° 0 mm 7 m/s 760 mmHg 85%
20:00 +14°C° 0 mm 7 m/s 760 mmHg 84%
21:00 +14°C° 0 mm 7 m/s 761 mmHg 83%
22:00 +14°C° 0.2 mm 6 m/s 760 mmHg 86%
23:00 +14°C° 0.2 mm 6 m/s 760 mmHg 90%
Arată mai mult

Formular de consimțământ

Meteoprog și furnizorii noștri de servicii pot stoca și accesa date personale, precum cookies, identificatori de dispozitiv sau alte tehnologii similare pe dispozitivul dumneavoastră și procesa astfel de date pentru a personaliza conținutul și reclamele, dar și pentru a oferi caracteristici de social media și pentru a analiza traficul.

  • Stocarea și/sau accesarea informațiilor pe dispozitivul dumneavoastră

    Cookies, identificatori de dispozitiv sau alte informații pot fi stocate sau accesate pe dispozitiv în scopurile indicate mai sus.

  • Reclame și conținut personalizat, evaluarea reclamelor și a conținutului, informații despre audiențe și dezvoltarea produselor

    Reclamele și conținutul pot fi personalizate pe baza unui profil. Pot fi adăugate date suplimentare pentru a personaliza mai bine reclamele și conținutul. Performanța reclamelor și conținutului poate fi măsurată. Pot fi obținute informații despre utilizatorii care au văzut reclamele și conținutul. Aceste date pot fi utilizate pentru a dezvolta sau îmbunătăți experiența utilizatorilor, sistemele și software-ul.

Dând clic pe ‘Sunt de acord’, permiteți utilizarea cookie-urilor menționate, a identificatorilor de dispozitiv, balizelor web sau altor tehnologii similare. Setările pot fi modificate din browser-ul dispozitivului dumneavoastră.

În anumite scopuri, interesele legitime pot prima asupra consimțământului. Puteți citi mai multe informații în acest sens în Politica privind Confidențialitatea Datelor și Cookie.